Location: Unspecified
(32.5099°N, 80.0190°W)
Time: 11:12:31
(UTC-04:00)

CZ-3 Stage 3 - Visible Passes

Search period start: 03 September 2015 00:00
Search period end: 13 September 2015 00:00
Orbit: 439 x 34786 km, 30.9° (Epoch: 01 September)

Date Brightness Start Highest point End Pass type
(mag) Time Alt. Az. Time Alt. Az. Time Alt. Az.
03 Sep 6.9 04:21:06 24° W 05:10:37 86° S 13:32:07 10° SSW visible
04 Sep 6.2 00:53:59 63° ESE 00:53:59 63° ESE 09:54:20 10° SE visible
06 Sep 6.9 04:16:12 25° W 05:07:17 86° S 13:25:17 10° SSW visible
07 Sep 6.3 00:49:06 64° ESE 00:49:06 64° ESE 09:48:46 10° SE visible
09 Sep 6.9 04:11:21 27° W 05:04:03 85° SSW 13:18:16 10° SSW visible
10 Sep 6.4 00:44:16 65° ESE 00:44:16 65° ESE 09:43:10 10° SSE visible
12 Sep 7.0 04:06:34 28° W 05:00:56 84° SSW 13:11:02 10° SSW visible
